Location: Boxford
(51.4333°N, 1.3833°W)
Time: 03:21:17
(UTC+00:00)

Daily predictions for brighter satellites

Satellite Brightness Start Highest point End
(mag) Time Altitude Azimuth Time Altitude Azimuth Time Altitude Azimuth
Cosmos 2369 Rocket 3.9 00:10:57 28° NNE 00:10:57 28° NNE 00:13:33 10° NNE
USA 234 4.3 00:03:44 10° ENE 00:17:12 - WNW 00:07:47 38° NE
COSMOS 2455 4.4 00:26:25 30° NNW 00:26:25 30° NNW 00:31:35 10° NNE
Cosmos 2227 Rocket 3.6 00:50:29 10° NNW 00:54:07 34° N 00:54:07 34° N
SL-16 R/B 3.1 01:15:09 52° NNE 01:15:09 52° NNE 01:19:56 10° NNW
ATLAS 2AS CENTAUR R/B 4.4 01:11:02 10° WNW 01:18:02 33° N 01:24:42 10° ENE
CZ-2D R/B 3.6 01:15:29 10° NNE 01:18:48 32° NE 01:18:48 32° NE
Cosmos 1943 Rocket 4.0 01:21:05 23° NNW 01:21:05 23° NNW 01:25:04 10° NNE
Lacrosse 5 4.4 01:29:27 12° E 01:29:27 12° E 01:30:11 10° E
Resurs 1-4 Rocket 3.4 01:22:32 10° NNE 01:25:56 35° NE 01:25:56 35° NE
ATLAS 5 CENTAUR R/B 3.9 01:30:41 23° NE 01:30:41 23° NE 01:32:32 10° NE
Cosmos 2297 Rocket 3.8 01:37:02 10° NNW 01:39:21 26° NNW 01:39:21 26° NNW
Cosmos 2082 4.5 01:43:07 10° NNW 01:47:38 49° NNE 01:47:38 49° NNE
USA 234 3.4 01:46:15 10° E 01:52:44 69° NNE 01:55:07 41° NW
Cosmos 2369 Rocket 4.0 01:52:43 22° NW 01:52:52 22° NW 01:57:12 10° NNE
CZ-4C R/B 4.2 01:51:44 19° NW 01:54:49 29° N 02:00:52 10° NE
Cosmos 1697 Rocket 3.9 02:01:35 33° ESE 02:01:35 33° ESE 02:06:21 10° NE
SL-8 Rocket 4.5 01:56:15 10° NNW 02:00:56 51° NNW 02:00:56 51° NNW
Cosmos 1980 Rocket 4.0 02:05:36 20° ESE 02:06:44 21° E 02:10:52 10° NE
Cosmos 2263 Rocket 3.9 02:04:34 10° NNW 02:09:33 31° NE 02:14:32 10° ESE
Cosmos 2366 rocket 4.3 02:11:24 10° NNW 02:16:29 56° NW 02:16:29 56° NW
Cosmos 2218 Rocket 4.3 02:11:47 10° NNW 02:16:58 55° NW 02:16:58 55° NW
Gbstr 26 Del rocket 4.4 02:18:37 59° W 02:20:30 90° S 02:28:17 10° E
CZ-3B R/B 3.7 02:25:23 29° E 02:25:23 29° E 02:29:06 10° ENE
ADEOS II 2.4 02:20:20 10° NNE 02:25:24 61° E 02:25:24 61° E
Cosmos 1151 Rocket 4.3 02:26:33 39° ENE 02:26:33 39° ENE 02:29:53 10° NNE
Nadezhda 3 Rocket 4.5 02:26:57 43° SE 02:28:29 54° E 02:34:28 10° NNE
ARIANE 5 R/B 3.7 02:25:37 10° NNE 02:30:18 35° E 02:31:22 32° ESE
Cosmos 1656 3.6 02:32:28 77° NNE 02:32:28 77° NNE 02:37:37 10° NNE
IDEFIX/ARIANE 42P 4.1 02:29:58 10° NNE 02:34:41 32° E 02:36:51 23° SE
IRS-1D 3.6 02:30:09 10° NNE 02:35:24 79° E 02:35:24 79° E
Cosmos 2227 Rocket 4.2 02:34:40 10° NW 02:35:52 16° NW 02:35:52 16° NW
Cosmos 2181 Rocket 4.3 02:43:38 49° WNW 02:43:38 49° WNW 02:49:20 10° N
SL-08 R/B 4.5 02:37:27 10° NNW 02:43:49 67° W 02:43:53 67° W
CBERS-1 3.9 02:39:33 10° NNE 02:44:31 84° NNE 02:44:31 84° NNE
IRS-1C 4.3 02:46:30 10° NNE 02:51:51 67° ESE 02:52:48 55° SSE
Meteor 1-20 Rocket 4.0 02:50:18 10° NNW 02:55:47 77° W 02:55:51 77° WSW
USA 307 3.8 02:57:59 43° ESE 02:57:59 43° ESE 03:01:17 10° ENE
SJ 16-02 2.7 02:53:27 10° N 02:57:36 39° ENE 03:01:44 10° SE
Cosmos 1238 Rocket 4.4 02:50:59 10° N 02:57:37 65° ENE 03:03:45 10° SSE
SL-16 R/B 4.0 03:00:15 21° WNW 03:00:15 21° WNW 03:03:04 10° NW
USA 267 3.5 02:52:14 10° ENE 02:58:42 57° SE 03:00:27 45° S
Cosmos 1782 3.6 02:59:09 48° E 02:59:14 48° E 03:03:08 10° NNE
Cosmos 44 4.4 02:59:36 30° SE 03:00:14 31° ESE 03:04:20 10° NE
USA 308 3.7 03:01:02 45° ESE 03:01:02 45° ESE 03:04:29 10° ENE
CZ-2D R/B 2.9 02:55:41 10° N 03:00:07 36° NW 03:00:07 36° NW
Cosmos 389 Rocket 3.9 03:02:26 36° E 03:02:26 36° E 03:05:37 10° NNE
USA 276 4.5 03:04:24 21° E 03:04:24 21° E 03:05:41 10° E
Cosmos 1606 4.4 03:04:58 26° NNW 03:04:58 26° NNW 03:06:50 10° N
Cosmos 2278 4.1 03:02:26 41° SSE 03:04:08 57° ESE 03:09:44 10° NE
Resurs 1-4 Rocket 3.1 03:02:41 10° N 03:07:00 32° NW 03:07:00 32° NW
ATLAS CENTAUR R/B 4.2 02:51:33 10° W 03:07:19 60° N 03:13:00 10° ENE
Lacrosse 5 1.8 03:08:39 66° S 03:09:03 69° SE 03:14:07 10° ENE
H-2A R/B 3.3 03:06:33 10° SE 03:10:42 44° ENE 03:14:59 10° N
ATLAS 2AS CENTAUR R/B 3.8 03:03:20 10° NW 03:10:48 48° NNE 03:17:43 10° ESE
NOSS 2-2 (D) 4.5 03:10:04 45° W 03:11:35 57° SW 03:19:01 10° SSE
NPP 4.4 03:06:50 10° N 03:11:43 36° WNW 03:11:43 36° WNW
Cosmos 2369 3.6 03:11:29 56° SSW 03:12:47 89° ESE 03:18:34 10° NNE
ATLAS 5 CENTAUR R/B 2.9 03:12:12 29° NW 03:12:55 30° NNW 03:17:22 10° NE
SL-08 R/B 3.7 03:16:43 47° NW 03:16:43 47° NW 03:20:21 10° NNW
Landsat 5 4.2 03:18:51 10° SSE 03:23:17 57° ENE 03:27:40 10° N
ADEOS Rocket 4.2 03:18:30 10° SE 03:24:42 44° ENE 03:30:21 10° N
Cosmos 1818 4.5 03:24:47 32° WNW 03:26:11 37° NNW 03:31:16 10° NE
Cosmos 1470 Rocket 4.3 03:24:43 10° NNW 03:27:56 38° NW 03:27:56 38° NW
Spot 4 Rocket 4.1 03:25:48 10° NNE 03:30:59 77° ESE 03:33:40 29° S
IRS-P3 4.2 03:25:44 10° N 03:31:00 60° WNW 03:32:20 46° WSW
MSX 4.1 03:27:28 10° NNE 03:33:14 66° ESE 03:37:57 16° S
ERS-2 3.6 03:30:04 10° SE 03:33:29 38° ENE 03:36:55 10° N
Timation 1 Rocket 4.5 03:29:29 10° NW 03:35:14 48° WSW 03:40:57 10° S
USA 234 3.2 03:29:24 10° SE 03:35:51 61° SW 03:42:21 10° WNW
CZ-4B R/B 4.2 03:33:23 10° N 03:38:00 36° WNW 03:38:39 35° W
Cosmos 2360 4.2 03:37:38 40° SW 03:39:44 71° WNW 03:45:29 10° NNE
X-37B 2.7 03:42:02 19° SSE 03:42:02 19° SSE 03:43:23 10° SE
Cosmos 1898 Rocket 3.9 03:35:34 10° NNW 03:40:48 66° ENE 03:46:03 10° SE
Iridium 2 3.5 03:42:11 65° SW 03:42:37 75° W 03:46:24 10° N
Cosmos 1821 Rocket 4.5 03:37:37 10° NNW 03:43:21 38° W 03:44:40 34° WSW
CZ-4C R/B 4.1 03:39:03 10° NW 03:45:07 38° NNE 03:52:14 10° E
Cosmos 1697 Rocket 2.9 03:43:20 37° WSW 03:45:10 52° NW 03:50:41 10° NNE
BREEZE M DEB (TANK) 4.4 03:26:20 10° WNW 03:45:10 56° SW 03:50:19 10° SE
SL-8 R/B 4.3 03:45:53 36° SSW 03:45:53 36° SSW 03:50:15 10° SE
Cosmos 1980 Rocket 2.1 03:47:24 32° SW 03:50:07 79° WNW 03:55:49 10° NNE
Cosmos 972 Rocket 4.2 03:49:28 38° WSW 03:50:45 47° WNW 03:55:35 10° NNE
Cosmos 1515 Rocket 3.8 03:50:06 43° WSW 03:51:03 51° WNW 03:55:24 10° N
IRIDIUM 114 4.4 03:48:02 10° N 03:53:18 79° E 03:58:31 10° S
Cosmos 2263 Rocket 2.1 03:48:19 10° NW 03:53:55 66° WSW 03:59:31 10° SSE
Cosmos 1934 Rocket 4.1 03:48:57 10° NNW 03:54:45 49° W 03:59:39 15° SSW
Cosmos 921 Rocket 3.1 03:52:49 25° S 03:55:09 72° ESE 03:59:21 10° NNE
Meteor 1-26 Rocket 4.3 03:53:50 32° SW 03:55:57 50° WNW 04:01:15 10° N
Cosmos 2322 Rocket 3.6 03:51:59 10° S 03:57:05 36° ESE 04:02:15 10° NE
USA 32 4.5 03:53:37 10° N 03:58:52 64° E 04:04:04 10° SSE
Cosmos 1844 Rocket 4.0 03:54:25 10° NNW 03:59:47 42° NE 04:05:08 10° ESE
Cosmos 1500 3.2 03:57:14 10° NNW 04:01:02 57° W 04:03:18 22° SSW
IRIDIUM 103 4.3 03:57:11 10° N 04:02:27 88° W 04:07:40 10° S
Cosmos 1151 Rocket 4.3 04:03:24 24° WNW 04:03:31 24° WNW 04:07:04 10° NNW
Cosmos 1812 2.7 04:01:20 19° S 04:03:58 86° E 04:07:52 10° NNE
ADEOS II 3.2 04:00:38 10° N 04:04:54 26° WNW 04:06:19 23° W
USA 305 2.8 04:03:31 35° WSW 04:05:13 83° NNW 04:09:30 10° ENE
Cosmos 1933 Rocket 4.4 04:02:15 10° NNW 04:05:55 29° W 04:05:55 29° W
SL-16 R/B 3.0 04:00:41 10° S 04:06:06 49° ESE 04:11:34 10° NE
Cosmos 1666 2.8 04:02:49 10° N 04:06:40 78° ENE 04:10:28 10° SSE
Cosmos 1937 Rocket 3.6 04:01:32 10° NNW 04:06:43 77° ENE 04:11:51 10° SSE
CZ-4C R/B 3.2 04:06:18 26° SSW 04:08:00 47° W 04:11:29 10° NNW
Cosmos 192 4.3 04:05:47 26° SW 04:08:30 66° WNW 04:13:27 10° NNE
USA 306 2.9 04:07:32 32° WSW 04:09:26 81° NNW 04:13:42 10° ENE
ARIANE 5 R/B 3.0 04:04:43 10° N 04:09:28 40° WNW 04:11:42 26° WSW
Cosmos 2227 4.4 04:06:50 10° NW 04:12:14 46° WSW 04:17:34 10° S
IDEFIX/ARIANE 42P 2.9 04:09:24 10° N 04:14:27 46° WNW 04:17:39 21° SW
COSMOS 2441 4.4 04:11:43 10° N 04:16:36 64° WNW 04:20:47 14° SSW
Meteor 1-10 Rocket 4.3 04:10:48 10° SSW 04:16:36 87° WNW 04:22:33 10° NNE
Cosmos 1153 Rocket 4.5 04:10:49 10° NNW 04:17:13 77° W 04:23:32 10° S
ASTEX 1 4.1 04:13:46 10° N 04:18:18 35° WNW 04:20:50 22° WSW
CZ-2C R/B 2.7 04:13:30 10° NNE 04:18:38 77° ESE 04:23:49 10° S
Cosmos 1733 Rocket 3.6 04:14:21 10° N 04:18:41 60° ENE 04:22:58 10° SSE
Cosmos 2228 Rocket 3.3 04:17:07 21° SW 04:19:49 49° WNW 04:24:08 10° N
IRIDIUM 106 4.3 04:15:34 10° N 04:20:45 64° W 04:25:54 10° S
Cosmos 1605 Rocket 4.2 04:15:26 10° NNW 04:21:33 49° W 04:27:40 10° SSW
SAR-Lupe-4 4.2 04:18:49 10° SSE 04:22:21 59° ENE 04:25:55 10° N
CZ-2D R/B 4.3 04:19:20 10° N 04:23:06 33° WNW 04:24:57 23° WSW
SL-4 R/B 4.0 04:21:28 10° SSW 04:25:22 28° SE 04:29:25 10° E
Cosmos 1869 Rocket 3.9 04:21:27 10° NNW 04:25:34 42° W 04:29:38 10° SSW
Meteor 1-5 Rocket 4.3 04:20:35 10° NNW 04:25:39 46° W 04:30:47 10° SSW
Cosmos 1763 Rocket 3.8 04:22:39 10° SSW 04:27:57 74° ESE 04:33:16 10° NNE
Meteor 2-6 Rocket 4.4 04:26:06 10° SSW 04:31:42 58° WNW 04:37:31 10° N
CZ-2C R/B 3.4 04:29:52 10° N 04:33:19 35° WNW 04:35:35 18° WSW
SAR-Lupe-1 4.2 04:30:57 10° SSE 04:34:30 77° ENE 04:38:06 10° NNW
Cosmos 1782 4.3 04:34:46 18° W 04:35:50 19° WNW 04:38:48 10° NNW
SJ 16-02 2.1 04:32:16 10° NW 04:36:03 28° W 04:39:49 10° SSW
Meteor 1-4 Rocket 2.5 04:33:50 12° SSW 04:36:57 55° WNW 04:40:27 10° N
Cosmos 389 Rocket 4.0 04:36:18 18° W 04:37:08 20° WNW 04:39:51 10° NNW
USA 307 3.0 04:34:10 19° W 04:37:10 69° NNW 04:41:26 10° ENE
NOSS 3-4 (A) 3.8 04:31:21 10° NW 04:38:14 76° SW 04:45:54 10° SE
PSLV R/B 3.5 04:34:07 10° N 04:38:18 66° WNW 04:42:27 10° SSW
NOSS 3-4 (C) 3.8 04:31:28 10° NW 04:38:21 77° SW 04:46:01 10° SE
Cosmos 1862 Rocket 4.4 04:34:24 10° S 04:38:39 54° E 04:42:55 10° NNE
USA 276 2.2 04:36:45 21° W 04:38:41 65° S 04:41:53 10° ESE
USA 308 3.0 04:37:13 18° W 04:40:22 68° NNW 04:44:38 10° ENE
Cosmos 44 3.5 04:38:02 17° WSW 04:41:16 50° NW 04:45:55 10° NE
BREEZE-M DEB (TANK) 4.0 04:35:46 11° SW 04:41:28 29° S 04:44:15 10° ESE
USA 267 3.4 04:35:21 10° ENE 04:41:52 71° NNW 04:47:47 13° W
BREEZE-M DEB (TANK) 3.6 04:40:44 17° WSW 04:43:08 61° SSE 04:51:40 10° E
PAYLOAD A 3.9 04:39:02 10° N 04:43:41 60° WNW 04:48:17 10° SSW
Cosmos 1743 3.3 04:41:31 10° N 04:45:18 62° ENE 04:49:05 10° SSE
ERBS 2.3 04:43:59 16° SW 04:46:36 75° SSE 04:49:58 10° ENE
H-2A R/B 3.1 04:43:10 10° SSW 04:46:51 26° W 04:50:37 10° NW
Cosmos 990 Rocket 4.5 04:42:45 10° NW 04:47:29 37° WSW 04:52:14 10° S
NOSS 3-3 (A) 4.0 04:44:08 12° SW 04:49:41 73° NW 04:56:31 10° NE
NOSS 3-3 (C) 4.0 04:44:18 12° SW 04:49:47 74° NW 04:56:35 10° NE
Cosmos 1725 Rocket 4.3 04:45:34 10° N 04:51:46 71° ENE 04:57:56 10° SSE
Lacrosse 5 2.4 04:47:50 13° W 04:52:14 52° NNW 04:57:13 10° ENE
Cosmos 540 Rocket 3.9 04:50:09 10° SSW 04:55:16 67° ESE 05:00:25 10° NNE
Cosmos 468 Rocket 4.1 04:50:49 10° SW 04:56:04 64° WNW 05:01:20 10° NNE
DEBRIS 4.4 04:55:54 11° SW 04:57:23 14° SSW 04:59:50 10° SSE
CZ-4B R/B 1.6 04:54:36 10° S 04:57:37 41° W 05:00:45 10° NNW
Cosmos 2100 Rocket 4.1 04:51:49 10° NNW 04:58:06 62° W 05:04:21 10° S
ATLAS 5 CENTAUR R/B 3.9 04:55:19 10° NW 04:59:03 21° N 05:03:13 10° NE
Cosmos 1727 Rocket 4.2 04:54:25 10° SSW 05:00:36 53° WNW 05:06:47 10° N
ALOS 2.5 04:56:27 10° NNE 05:01:08 79° ESE 05:05:48 10° S
ATLAS 2AS CENTAUR R/B 2.8 04:54:41 10° NW 05:02:13 68° SW 05:09:06 10° SSE
CZ-4B R/B 4.1 04:58:44 10° NNE 05:02:16 40° E 05:05:41 10° S
Cosmos 1802 Rocket 4.0 04:57:01 10° NNW 05:03:12 72° W 05:09:24 10° S
Meteor 1-11 Rocket 4.3 04:58:35 10° NNW 05:03:53 37° W 05:09:02 10° SSW
CZ-4B R/B 4.3 04:59:35 10° NNE 05:03:54 76° ESE 05:08:20 10° S
ERS-2 3.4 05:04:21 10° SW 05:07:10 21° W 05:10:01 10° NW
Okean 1 4.1 05:03:31 10° S 05:07:30 57° E 05:11:29 10° NNE
ADEOS Rocket 3.5 05:03:58 10° SSW 05:10:16 42° W 05:16:03 10° NNW
Cosmos 1689 Rocket 2.0 05:07:33 10° S 05:10:30 68° WSW 05:13:30 10° NNW
Cosmos 1484 Rocket 2.8 05:06:45 10° N 05:10:44 77° WNW 05:14:44 10° SSW
COSMO-SKYMED 1 2.6 05:08:47 10° SSE 05:13:08 87° WSW 05:17:32 10° NNW
Cosmos 1459 Rocket 4.1 05:07:57 10° NNW 05:13:49 51° W 05:19:37 10° SSW
X-37B 2.8 05:15:00 10° SW 05:16:41 14° SSW 05:18:22 10° S
Cosmos 1536 3.8 05:13:37 10° NNW 05:17:05 27° W 05:20:32 10° SSW
METEOR-M 4.2 05:12:42 10° NNE 05:18:06 89° ESE 05:23:28 10° SSW
Meteor 1-27 Rocket 4.1 05:13:34 10° SW 05:19:19 49° WNW 05:25:03 10° N
USA 234 4.4 05:15:11 10° S 05:19:49 20° SW 05:24:28 10° WNW
Cosmos 2298 Rocket 4.0 05:17:18 10° NNW 05:22:39 76° WSW 05:27:56 10° SSE
